P/2016 R4 ( Gibbs )

Japanese version
Home page
Updated on March 25, 2017

---------------------------------------------------------------------

* Profile

Discovery Date September 10, 2016
Magnitude 18.9 mag
Discoverer A. R. Gibbs (Mount Lemmon)

* Pictures

* Orbital Elements

Epoch 2016 July 31.0 TT = JDT 2457600.5
T 2016 July 20.50253 TT                                 MPCW
q   2.8005782            (2000.0)            P               Q
n   0.07998935     Peri.  174.05949     +0.95359920     +0.29866319
a   5.3347566      Node   168.34695     -0.28341250     +0.93311145
e   0.4750317      Incl.   10.86229     -0.10161650     +0.20025814
P  12.32
From 176 observations 2016 July 18-Nov. 26, mean residual 0".5.

* Magnitudes Graph

        m1 = 12.5 + 5 log d + 10.0 log r

---------------------------------------------------------------------

The orbital elements are published on M.P.E.C. 2017-A77.
The magnitudes graphs are made with Comet for Windows.

---------------------------------------------------------------------

Copyright(C) Seiichi Yoshida (comet@aerith.net). All rights reserved.